Location: Campillo
(40.8621°N, 4.2488°W)
Time: 12:15:36
(UTC+00:00)

Ariane Rocket - Pass Details

Date: 11 May 2021
Orbit: 761 x 769 km, 98.7° (Epoch: 13 June)

Event Time Altitude Azimuth Distance (km) Brightness Sun altitude
Exits shadow 20:50:42 - 181° (S) 2,451 5.2 -14.6°
Reaches altitude 10° 20:51:08 10° 182° (S) 2,286 5.1 -14.7°
Maximum altitude 20:56:03 54° 259° (W) 924 3.6 -15.4°
Drops below altitude 10° 21:01:01 10° 337° (NNW) 2,306 6.5 -16.1°
Sets 21:03:24 0° 342° (NNW) 3,237 7.3 -16.4°
